Track COSMOS 2213 now! 10-day predictions COSMOS 2213 is classified as:
1 22184U 92068C 25187.54497041 .00000013 00000-0 13301-4 0 9995 2 22184 82.5981 207.0391 0003071 167.6326 311.9102 12.62601124507336